Wind_Speed
97 100 101 101 102 103 103 104 104 105 106 106 106 104 102 100 97 95 94 93 93 93 93 92 91 90 91 92 94 95 97 99 99 99 98 97 97 97 99 101 103 104
100 101 102 102 104 105 105 105 106 106 107 106 105 102 99 97 94 93 92 92 93 93 93 92 91 91 92 93 95 96 98 99 99 99 98 97 97 98 99 101 103 104
101 102 103 104 106 107 107 107 106 106 105 105 102 99 96 94 92 91 91 92 92 93 93 93 91 92 93 94 96 97 98 99 99 98 97 96 96 98 100 102 104 105
102 103 104 106 106 107 108 107 105 104 103 101 98 95 93 91 90 90 91 92 93 94 94 93 93 93 94 96 97 97 98 98 98 97 95 94 96 98 101 103 104 105
103 104 105 106 106 107 107 104 102 100 99 97 94 91 90 89 89 89 91 92 94 94 94 94 94 95 96 97 97 97 98 97 97 95 94 93 95 98 101 104 105 105
102 104 105 106 106 106 103 100 98 97 95 92 90 88 87 87 88 89 91 92 93 94 94 94 94 96 97 98 98 98 98 97 96 94 93 93 95 98 101 103 104 104
103 105 106 105 104 102 99 96 94 92 90 88 87 86 86 87 88 89 91 92 93 93 93 94 95 96 97 97 97 98 97 97 95 94 93 94 96 98 101 102 103 103
104 105 104 102 100 97 94 92 90 89 87 86 85 85 86 87 88 90 91 92 93 93 93 94 94 95 96 96 97 97 97 96 95 94 94 95 97 99 101 102 101 101
101 100 99 97 96 93 91 90 89 87 86 86 86 86 86 88 89 90 92 92 92 93 93 94 95 95 95 96 96 96 96 95 94 94 95 96 98 100 101 101 100 99
97 96 95 94 92 91 90 89 88 88 87 87 87 87 88 89 90 91 92 92 92 93 94 94 94 95 95 96 96 96 95 94 93 94 96 97 99 100 101 100 99 98
94 93 92 92 91 90 88 88 88 88 88 88 88 88 89 90 90 91 92 92 93 93 94 94 94 95 96 96 96 95 93 92 93 95 97 98 99 100 100 99 98 96
93 92 91 90 90 89 88 88 88 89 89 89 89 88 89 90 90 91 91 92 93 94 94 94 95 96 96 96 95 93 91 91 93 95 97 99 100 101 100 98 97 94
93 91 90 90 90 89 89 89 89 89 89 89 88 88 89 90 91 91 92 92 93 94 94 94 96 96 96 95 93 90 89 90 92 95 98 100 101 101 99 97 95 93
94 92 91 91 90 89 89 89 89 89 89 88 88 88 89 90 91 91 92 93 93 94 94 95 96 96 95 93 90 88 88 89 92 95 98 100 101 100 98 95 92 89
94 93 92 92 91 90 89 89 89 89 88 87 87 89 90 91 92 92 92 93 93 94 95 96 96 95 93 90 87 86 87 88 91 94 97 99 98 97 97 94 87 84
95 93 93 92 91 90 89 88 88 87 86 87 88 90 91 91 92 92 92 92 93 94 95 95 94 92 90 87 86 86 86 88 91 95 97 98 97 97 97 91 83 79
96 95 93 92 90 88 87 87 86 86 86 88 89 90 91 92 93 93 92 92 93 94 94 93 92 89 87 86 85 85 86 88 91 94 97 96 95 97 96 87 80 76
97 95 93 91 89 87 86 86 85 86 87 89 90 91 92 93 93 93 93 93 93 93 92 91 89 87 86 85 85 85 85 88 92 94 95 94 93 96 94 83 76 74
97 95 91 89 87 86 85 85 86 87 88 89 90 91 92 93 94 94 93 93 92 91 91 89 87 87 87 86 85 85 85 87 91 93 93 91 92 94 91 79 72 71
97 94 91 88 87 86 86 86 87 88 88 89 90 92 93 94 94 94 94 93 91 90 89 88 87 87 87 87 85 85 85 87 90 91 90 89 90 91 85 75 70 69
97 94 91 89 88 87 88 88 88 88 88 90 92 93 93 94 94 94 93 92 90 88 87 87 88 88 88 88 87 86 86 87 88 88 87 88 89 88 81 71 67 66
97 95 93 91 89 89 89 88 88 87 88 91 93 94 94 94 94 94 93 91 89 87 86 86 88 89 89 88 88 87 87 88 86 84 84 85 86 83 77 69 66 64
99 97 95 93 91 90 89 89 87 87 89 92 94 95 96 95 95 93 91 89 87 85 85 86 88 89 89 89 88 88 89 88 83 80 80 81 81 78 74 69 65 62
101 100 98 95 93 91 90 89 89 90 92 95 96 98 98 96 93 90 89 87 85 84 84 86 88 90 90 90 89 89 90 88 81 76 76 76 75 74 71 67 63 60
104 102 100 97 94 92 91 91 91 93 96 97 99 99 97 93 90 88 87 86 85 85 85 86 88 90 92 91 90 90 91 86 78 73 71 70 70 69 69 66 62 58
106 104 101 98 96 94 94 94 94 96 97 98 99 98 94 91 88 87 86 85 85 85 85 86 89 91 92 91 91 92 91 85 76 70 66 65 65 66 66 64 60 56
Wind_Direction
299 300 300 300 301 301 301 300 300 300 300 299 298 297 297 297 297 298 298 298 298 299 299 299 299 299 300 300 301 301 300 299 298 296 294 293 291 289 287 286 285 285
298 299 299 299 300 301 301 301 300 300 299 299 298 297 297 297 297 297 297 298 298 299 299 299 299 300 301 302 302 302 301 299 298 296 295 293 291 289 288 287 286 286
297 298 298 298 299 299 301 301 300 299 298 298 298 297 297 297 297 297 297 298 299 299 299 299 300 301 302 302 302 302 301 299 298 296 294 293 291 290 288 287 287 286
296 297 297 298 298 299 300 300 299 299 298 298 298 298 298 297 297 297 297 298 299 300 300 300 301 301 302 302 302 302 301 299 298 296 294 292 291 289 289 288 287 287
296 296 297 297 297 298 299 299 299 298 298 298 298 298 298 298 298 298 299 300 300 301 301 301 302 302 303 303 302 301 300 299 297 295 293 292 290 289 289 288 289 288
296 296 297 297 297 298 298 298 298 298 298 298 299 299 299 299 300 300 300 301 301 302 302 302 302 303 303 303 302 301 300 298 297 295 293 292 291 290 289 289 289 289
296 296 297 297 298 298 298 298 298 298 298 298 298 299 300 300 301 302 302 303 303 303 303 303 303 304 303 303 303 302 300 299 297 295 294 292 291 291 290 290 290 290
296 297 297 298 298 298 298 297 297 297 297 297 298 299 300 301 302 303 304 304 305 304 304 304 304 305 304 304 303 302 301 299 298 296 295 293 293 292 291 291 292 292
297 297 298 298 298 297 296 296 296 296 297 297 298 298 300 302 303 304 305 306 306 305 305 305 305 305 305 305 304 303 301 300 299 297 295 294 294 294 294 294 294 294
299 299 298 298 297 296 295 295 296 297 297 297 297 298 300 302 304 305 306 306 306 306 306 306 306 306 306 306 305 303 302 301 299 298 297 296 296 296 296 296 296 296
300 300 299 297 296 296 296 296 296 297 297 297 298 299 301 303 305 306 307 306 306 306 306 306 307 307 307 307 306 304 303 302 300 299 298 298 298 298 298 298 297 296
301 300 299 298 297 296 296 296 296 297 297 298 298 300 302 304 306 307 307 307 307 307 307 308 308 308 308 307 306 305 304 303 301 300 300 300 299 299 299 298 297 296
301 301 300 299 298 297 297 297 297 297 297 298 300 302 304 306 307 307 307 307 307 308 308 309 309 309 309 308 307 306 305 304 302 301 301 301 300 301 300 299 299 298
301 301 301 300 299 298 298 297 297 297 298 299 302 304 306 307 307 307 307 308 308 309 309 310 310 310 309 308 307 307 305 304 303 303 302 302 302 302 301 300 300 300
301 301 301 300 300 299 298 297 298 298 299 301 304 307 307 307 307 307 308 308 309 310 311 311 311 310 309 308 308 307 306 304 303 303 303 302 302 302 300 300 301 299
301 301 301 300 300 299 298 298 298 299 302 304 307 308 308 307 307 308 308 309 310 311 311 311 310 310 309 309 309 308 306 304 304 303 302 302 302 302 301 302 302 298
301 301 301 300 299 298 298 299 300 302 304 307 308 308 308 307 308 308 309 311 312 312 312 311 310 310 309 310 309 308 306 304 304 304 303 303 303 302 302 303 302 298
301 301 300 299 299 298 299 301 302 304 306 308 308 308 308 308 308 309 310 312 312 313 312 311 311 310 310 310 310 309 307 304 304 304 304 304 304 302 302 304 302 297
301 300 300 299 299 300 301 303 304 306 307 308 309 308 308 309 309 310 311 312 313 313 312 311 311 311 311 311 310 309 307 305 304 304 304 305 305 303 302 303 301 296
301 301 300 300 301 302 303 304 306 307 308 309 309 309 309 309 310 311 312 313 313 313 312 312 312 312 312 312 311 309 308 306 305 305 306 307 306 303 302 302 299 296
301 301 301 302 302 304 305 306 307 308 309 310 310 310 310 310 310 311 312 313 313 313 313 313 313 313 313 313 312 310 308 307 306 307 308 309 306 303 302 301 298 296
302 302 302 303 303 304 306 307 308 309 310 310 310 310 310 310 311 312 312 313 312 312 313 314 314 314 314 314 312 310 309 308 307 309 311 311 306 303 301 300 298 296
302 302 303 303 304 305 307 308 309 310 310 311 311 311 311 311 312 312 312 312 312 313 314 315 315 315 315 314 313 310 309 308 308 311 313 310 305 302 301 300 298 297
302 302 302 303 304 306 308 309 310 311 311 312 312 311 311 311 312 312 312 312 313 313 315 316 316 316 316 315 313 311 309 308 310 312 313 309 304 302 300 299 298 297
302 302 302 303 305 307 309 310 311 312 312 312 311 310 310 311 312 313 313 313 313 314 316 316 317 318 317 316 314 311 309 308 310 313 313 308 303 302 300 298 298 296
301 302 303 305 306 308 309 311 311 311 311 311 310 309 310 312 313 313 312 313 314 315 316 317 318 319 318 317 314 311 309 309 311 312 311 307 304 302 300 298 298 296
Height
10535 10530 10524 10519 10514 10509 10504 10499 10494 10488 10481 10475 10470 10463 10456 10448 10441 10435 10427 10420 10413 10406 10399 10393 10387 10381 10376 10370 10364 10358 10352 10345 10339 10334 10330 10325 10320 10315 10308 10301 10294 10287
10524 10519 10513 10508 10503 10497 10493 10487 10482 10476 10469 10463 10458 10451 10444 10437 10430 10423 10416 10409 10402 10395 10388 10382 10376 10370 10364 10357 10351 10345 10338 10331 10325 10318 10314 10309 10302 10297 10291 10283 10277 10270
10513 10508 10502 10497 10492 10486 10481 10476 10470 10464 10457 10451 10446 10439 10433 10426 10419 10412 10405 10398 10391 10384 10377 10371 10365 10359 10352 10346 10339 10333 10325 10318 10311 10304 10299 10294 10286 10280 10274 10266 10260 10254
10502 10496 10491 10485 10480 10475 10469 10464 10458 10452 10445 10439 10433 10427 10420 10414 10407 10400 10393 10386 10380 10373 10366 10360 10354 10347 10340 10334 10327 10320 10313 10305 10298 10291 10286 10280 10271 10264 10257 10249 10244 10238
10490 10485 10479 10474 10469 10463 10458 10452 10446 10440 10433 10427 10421 10415 10408 10402 10395 10389 10382 10375 10368 10362 10355 10348 10341 10334 10327 10321 10314 10307 10300 10292 10285 10278 10273 10266 10257 10249 10240 10232 10227 10221
10479 10473 10468 10462 10457 10451 10446 10440 10434 10428 10421 10415 10408 10402 10396 10390 10384 10377 10370 10363 10357 10350 10343 10336 10329 10321 10313 10307 10300 10293 10285 10278 10271 10264 10259 10252 10244 10235 10226 10218 10212 10205
10467 10461 10455 10450 10444 10439 10433 10427 10421 10416 10409 10403 10397 10390 10384 10379 10372 10366 10358 10351 10344 10337 10331 10323 10316 10308 10300 10293 10286 10278 10270 10263 10256 10250 10243 10236 10228 10220 10211 10203 10198 10190
10455 10448 10443 10437 10431 10426 10421 10415 10409 10403 10397 10391 10385 10378 10372 10367 10360 10353 10346 10339 10332 10325 10318 10310 10302 10294 10286 10279 10272 10264 10256 10248 10241 10235 10228 10220 10212 10205 10196 10188 10182 10176
10442 10436 10430 10424 10419 10413 10409 10403 10397 10391 10385 10379 10373 10367 10361 10355 10348 10341 10334 10327 10320 10313 10305 10297 10289 10281 10273 10265 10258 10250 10242 10234 10227 10219 10212 10205 10197 10188 10180 10173 10167 10161
10428 10423 10417 10412 10406 10401 10396 10390 10384 10378 10372 10367 10361 10355 10349 10343 10335 10328 10321 10314 10307 10300 10292 10284 10275 10267 10259 10252 10244 10236 10228 10221 10213 10204 10196 10188 10181 10172 10164 10157 10151 10146
10415 10409 10404 10399 10393 10388 10383 10377 10371 10365 10360 10354 10348 10343 10337 10330 10323 10316 10309 10302 10295 10287 10279 10270 10261 10253 10246 10238 10230 10223 10215 10207 10198 10190 10181 10172 10165 10157 10150 10143 10137 10132
10402 10396 10391 10385 10380 10375 10369 10363 10358 10352 10346 10341 10336 10331 10325 10317 10310 10303 10296 10289 10281 10273 10265 10256 10247 10239 10232 10225 10218 10211 10203 10194 10185 10175 10166 10158 10150 10143 10136 10130 10123 10118
10388 10383 10378 10372 10367 10362 10356 10350 10345 10339 10334 10329 10324 10319 10312 10304 10297 10290 10283 10276 10268 10259 10251 10242 10234 10226 10219 10213 10207 10199 10190 10181 10172 10162 10152 10143 10135 10128 10122 10115 10109 10103
10375 10370 10365 10360 10354 10349 10343 10338 10332 10327 10321 10316 10312 10306 10298 10291 10284 10278 10271 10263 10255 10246 10237 10229 10220 10213 10207 10201 10195 10187 10179 10170 10160 10149 10139 10130 10122 10114 10106 10101 10097 10091
10361 10357 10352 10347 10342 10336 10330 10325 10319 10314 10309 10304 10299 10292 10285 10278 10271 10265 10258 10251 10243 10234 10224 10216 10208 10201 10195 10189 10183 10175 10167 10158 10148 10137 10128 10119 10112 10104 10094 10090 10088 10083
10348 10344 10339 10334 10329 10323 10318 10312 10307 10302 10296 10291 10285 10279 10272 10265 10258 10251 10245 10238 10230 10221 10212 10203 10196 10189 10183 10176 10169 10162 10155 10146 10135 10124 10114 10106 10100 10090 10081 10078 10077 10072
10334 10330 10326 10321 10316 10310 10305 10300 10294 10289 10283 10277 10272 10265 10258 10251 10244 10238 10232 10225 10217 10208 10199 10191 10183 10177 10171 10164 10156 10149 10142 10133 10122 10112 10102 10094 10086 10074 10066 10067 10065 10059
10320 10316 10312 10307 10302 10297 10292 10287 10281 10276 10271 10265 10259 10252 10244 10237 10230 10223 10218 10211 10204 10196 10187 10178 10171 10164 10157 10151 10144 10137 10129 10120 10109 10099 10090 10082 10073 10059 10053 10056 10054 10047
10306 10302 10298 10294 10289 10284 10279 10274 10269 10264 10258 10252 10245 10238 10231 10224 10216 10210 10204 10198 10191 10184 10174 10165 10157 10151 10144 10138 10131 10124 10117 10108 10097 10087 10078 10070 10059 10046 10042 10045 10042 10037
10293 10288 10284 10280 10275 10271 10266 10261 10256 10252 10246 10239 10232 10225 10217 10210 10203 10197 10191 10185 10178 10171 10162 10152 10144 10137 10130 10123 10117 10111 10104 10095 10085 10076 10067 10057 10044 10033 10032 10034 10030 10026
10279 10275 10270 10266 10262 10258 10254 10249 10244 10239 10233 10226 10218 10211 10205 10198 10191 10184 10178 10172 10165 10159 10150 10140 10131 10124 10116 10109 10102 10096 10090 10082 10075 10066 10055 10043 10030 10021 10021 10022 10019 10015
10265 10261 10257 10253 10250 10246 10241 10237 10232 10226 10220 10212 10205 10198 10192 10186 10179 10172 10166 10159 10152 10146 10139 10129 10119 10111 10104 10096 10089 10082 10076 10070 10064 10057 10045 10032 10019 10011 10010 10010 10007 10005
10252 10248 10244 10241 10237 10234 10229 10224 10219 10214 10207 10199 10192 10185 10179 10174 10168 10160 10154 10148 10140 10134 10127 10118 10108 10099 10091 10083 10076 10069 10062 10057 10053 10048 10037 10023 10011 10003 10000 9999 9997 9995
10238 10234 10231 10228 10225 10221 10216 10211 10206 10200 10194 10187 10180 10173 10167 10162 10157 10149 10141 10135 10128 10121 10115 10107 10097 10087 10078 10071 10063 10055 10048 10044 10042 10038 10028 10014 10003 9995 9990 9988 9987 9985
10225 10221 10218 10215 10212 10208 10203 10197 10193 10187 10181 10175 10168 10162 10156 10151 10146 10139 10130 10123 10116 10109 10103 10095 10085 10076 10067 10059 10051 10042 10034 10031 10030 10027 10018 10006 9995 9987 9981 9978 9977 9975
10211 10207 10204 10201 10197 10194 10190 10184 10180 10175 10169 10163 10156 10150 10145 10140 10135 10128 10121 10113 10105 10098 10090 10082 10074 10066 10056 10048 10040 10030 10022 10018 10017 10013 10007 9998 9988 9979 9972 9969 9967 9966